Location: *
(35.8942°N, 23.3025°E)
Time: 23:12:55
(UTC+00:00)

TIGRISAT - Visible Passes

Search period start: 31 March 2023 00:00
Search period end: 10 April 2023 00:00
Orbit: 601 x 681 km, 97.7° (Epoch: 31 March)

Date Brightness Start Highest point End Pass type
(mag) Time Alt. Az. Time Alt. Az. Time Alt. Az.
31 Mar ? 02:38:43 10° SE 02:42:24 27° ENE 02:46:10 10° NNE visible
01 Apr ? 03:01:58 10° SSE 03:06:12 50° ENE 03:10:34 10° N visible
02 Apr ? 03:25:40 10° SSE 03:30:04 85° WSW 03:34:37 10° NNW visible
03 Apr ? 02:15:20 10° ESE 02:17:54 15° ENE 02:20:31 10° NNE visible
03 Apr ? 17:20:40 10° NNW 17:23:23 16° WNW 17:26:05 10° WSW visible
04 Apr ? 02:37:51 10° SE 02:41:35 27° ENE 02:45:24 10° NNE visible
05 Apr ? 03:01:04 10° SSE 03:05:21 50° ENE 03:09:45 10° N visible
06 Apr ? 03:24:45 10° SSE 03:29:11 86° WSW 03:33:47 10° NNW visible
07 Apr ? 02:14:23 10° ESE 02:17:00 15° ENE 02:19:39 10° NNE visible
07 Apr ? 17:19:46 10° NNW 17:22:28 16° WNW 17:25:10 10° WSW visible
08 Apr ? 02:36:53 10° SE 02:40:39 27° ENE 02:44:30 10° NNE visible
09 Apr ? 03:00:04 10° SSE 03:04:23 50° ENE 03:08:50 10° N visible
